Weather History for Monett, MO

Change the Weather History Date:

Tuesday, May 14, 2013

  Actual Average (KJLN) Record (KJLN)
Temperature  
Mean Temperature 73 °F 66 °F  
Max Temperature 86 °F 77 °F 92 °F (1947)
Min Temperature 60 °F 56 °F 41 °F (1959)
Degree Days  
Heating Degree Days 0 2  
Month to date heating degree days 43  
Since 1 July heating degree days 4046  
Cooling Degree Days 8 4  
Month to date cooling degree days 40  
Year to date cooling degree days 94  
Growing Degree Days 23 (Base 50)    
Moisture  
Dew Point 51 °F    
Average Humidity 49    
Maximum Humidity 68    
Minimum Humidity 27    
Precipitation  
Precipitation 0.00 in 0.18 in 2.17 in (2010)
Month to date precipitation 2.67  
Year to date precipitation 14.91  
Sea Level Pressure  
Sea Level Pressure 30.01 in    
Wind  
Wind Speed 12 mph (SSW)    
Max Wind Speed 22 mph    
Max Gust Speed 29 mph    
Visibility 10 miles    
Events      
T = Trace of Precipitation, MM = Missing Value Source: NWS Daily Summary

Daily Weather History Graph

Daily Weather History Graph

Search for Another Location

Airport:

Trip Planner

Search our weather history database for the weather conditions in past years. The results will help you decide how hot, cold, wet, or windy it might be!

Date:

Astronomy

May. 14, 2013 Rise Set
Actual Time 6:08 AM CDT 8:16 PM CDT
Civil Twilight 5:39 AM CDT 8:45 PM CDT
Nautical Twilight 5:04 AM CDT 9:20 PM CDT
Astronomical Twilight 4:26 AM CDT 9:59 PM CDT
Moon 9:49 AM CDT (5/14) No Moon Set
Length of Visible Light 15h 05m
Length of Day
14h 07m
Waxing Crescent, 19% of the Moon is Illuminated
May 14
Waxing Crescent
May 17
First Quarter
May 24
Full
May 31
Last Quarter
Jun 8
New

Hourly Weather History & Observations

Time (CDT) Temp. Heat Index Dew Point Humidity Pressure Visibility Wind Dir Wind Speed Gust Speed Precip Events Conditions
12:15 AM 64.4 °F - 53.6 °F 68% 30.04 in 10.0 mi South 9.2 mph - N/A   Clear
12:35 AM 64.4 °F - 53.6 °F 68% 30.03 in 10.0 mi South 10.4 mph - N/A   Clear
12:55 AM 64.4 °F - 53.6 °F 68% 30.03 in 10.0 mi South 11.5 mph - N/A   Clear
1:15 AM 64.4 °F - 53.6 °F 68% 30.03 in 10.0 mi South 10.4 mph - N/A   Clear
1:35 AM 64.4 °F - 53.6 °F 68% 30.02 in 10.0 mi SSW 12.7 mph 16.1 mph N/A   Clear
1:55 AM 64.4 °F - 53.6 °F 68% 30.02 in 10.0 mi SSW 11.5 mph 17.3 mph N/A   Clear
2:15 AM 64.4 °F - 51.8 °F 64% 30.02 in 10.0 mi SSW 10.4 mph - N/A   Clear
2:35 AM 64.4 °F - 51.8 °F 64% 30.02 in 10.0 mi SSW 11.5 mph 17.3 mph N/A   Clear
2:55 AM 64.4 °F - 51.8 °F 64% 30.01 in 10.0 mi SSW 11.5 mph 17.3 mph N/A   Clear
3:15 AM 64.4 °F - 51.8 °F 64% 30.01 in 10.0 mi SSW 11.5 mph - N/A   Clear
3:35 AM 64.4 °F - 50.0 °F 59% 30.01 in 10.0 mi SSW 11.5 mph - N/A   Clear
3:55 AM 64.4 °F - 50.0 °F 59% 30.01 in 10.0 mi SSW 10.4 mph - N/A   Clear
4:15 AM 62.6 °F - 50.0 °F 63% 30.01 in 10.0 mi SSW 10.4 mph - N/A   Clear
4:35 AM 62.6 °F - 50.0 °F 63% 30.01 in 10.0 mi SSW 10.4 mph - N/A   Clear
4:55 AM 62.6 °F - 50.0 °F 63% 30.02 in 10.0 mi SSW 10.4 mph - N/A   Clear
5:15 AM 62.6 °F - 50.0 °F 63% 30.02 in 10.0 mi SSW 10.4 mph - N/A   Clear
5:35 AM 62.6 °F - 48.2 °F 59% 30.02 in 10.0 mi SSW 9.2 mph - N/A   Clear
5:55 AM 62.6 °F - 48.2 °F 59% 30.02 in 10.0 mi SSW 10.4 mph - N/A   Clear
6:15 AM 60.8 °F - 48.2 °F 63% 30.03 in 10.0 mi SSW 9.2 mph - N/A   Clear
6:35 AM 60.8 °F - 48.2 °F 63% 30.03 in 10.0 mi SSW 10.4 mph 16.1 mph N/A   Clear
6:55 AM 62.6 °F - 48.2 °F 59% 30.03 in 10.0 mi SSW 11.5 mph - N/A   Clear
7:15 AM 62.6 °F - 50.0 °F 63% 30.03 in 10.0 mi SSW 13.8 mph - N/A   Clear
7:35 AM 64.4 °F - 50.0 °F 59% 30.04 in 10.0 mi SSW 13.8 mph - N/A   Clear
7:55 AM 64.4 °F - 50.0 °F 59% 30.04 in 10.0 mi SW 15.0 mph - N/A   Clear
8:15 AM 66.2 °F - 50.0 °F 56% 30.05 in 10.0 mi SW 15.0 mph 25.3 mph N/A   Clear
8:35 AM 68.0 °F - 50.0 °F 52% 30.05 in 10.0 mi SW 17.3 mph 25.3 mph N/A   Clear
8:55 AM 69.8 °F - 50.0 °F 49% 30.05 in 10.0 mi SW 13.8 mph 21.9 mph N/A   Clear
9:15 AM 71.6 °F - 50.0 °F 46% 30.05 in 10.0 mi SW 13.8 mph - N/A   Clear
9:35 AM 71.6 °F - 50.0 °F 46% 30.05 in 10.0 mi SW 16.1 mph 23.0 mph N/A   Clear
9:55 AM 73.4 °F - 51.8 °F 47% 30.05 in 10.0 mi SW 16.1 mph 19.6 mph N/A   Clear
10:15 AM 73.4 °F - 51.8 °F 47% 30.05 in 10.0 mi SW 16.1 mph - N/A   Clear
10:35 AM 75.2 °F - 53.6 °F 47% 30.05 in 10.0 mi SW 13.8 mph 19.6 mph N/A   Clear
10:55 AM 77.0 °F - 51.8 °F 41% 30.05 in 10.0 mi SW 15.0 mph 24.2 mph N/A   Clear
11:15 AM 78.8 °F - 53.6 °F 42% 30.05 in 10.0 mi SSW 16.1 mph 19.6 mph N/A   Clear
11:35 AM 78.8 °F - 53.6 °F 42% 30.05 in 10.0 mi SW 18.4 mph 23.0 mph N/A   Clear
11:55 AM 78.8 °F - 53.6 °F 42% 30.05 in 10.0 mi SW 16.1 mph 19.6 mph N/A   Clear
12:15 PM 80.6 °F 80.3 °F 53.6 °F 39% 30.04 in 10.0 mi SW 16.1 mph - N/A   Clear
12:35 PM 82.4 °F - 51.8 °F 35% 30.03 in 10.0 mi SW 17.3 mph 24.2 mph N/A   Clear
12:55 PM 82.4 °F 81.4 °F 53.6 °F 37% 30.03 in 10.0 mi SSW 17.3 mph 21.9 mph N/A   Clear
1:15 PM 84.2 °F 82.8 °F 53.6 °F 35% 30.02 in 10.0 mi SSW 15.0 mph - N/A   Clear
1:35 PM 86.0 °F - 50.0 °F 29% 30.01 in 10.0 mi SW 16.1 mph 23.0 mph N/A   Clear
1:55 PM 86.0 °F - 50.0 °F 29% 30.01 in 10.0 mi SW 21.9 mph 25.3 mph N/A   Clear
2:15 PM 86.0 °F - 48.2 °F 27% 30.01 in 10.0 mi WSW 18.4 mph 27.6 mph N/A   Clear
2:35 PM 86.0 °F - 50.0 °F 29% 30.00 in 10.0 mi SW 17.3 mph 24.2 mph N/A   Clear
2:55 PM 86.0 °F - 51.8 °F 31% 30.00 in 10.0 mi SW 18.4 mph 24.2 mph N/A   Clear
3:15 PM 86.0 °F - 48.2 °F 27% 30.00 in 10.0 mi SW 18.4 mph 28.8 mph N/A   Clear
3:35 PM 86.0 °F - 50.0 °F 29% 29.99 in 10.0 mi WSW 13.8 mph 23.0 mph N/A   Clear
3:55 PM 86.0 °F - 50.0 °F 29% 29.99 in 10.0 mi SW 13.8 mph 26.5 mph N/A   Clear
4:15 PM 86.0 °F - 51.8 °F 31% 29.98 in 10.0 mi SSW 18.4 mph 26.5 mph N/A   Clear
4:35 PM 86.0 °F - 51.8 °F 31% 29.98 in 10.0 mi SSW 13.8 mph - N/A   Clear
4:55 PM 84.2 °F 82.8 °F 53.6 °F 35% 29.98 in 10.0 mi SSW 19.6 mph 25.3 mph N/A   Clear
5:15 PM 84.2 °F - 51.8 °F 33% 29.97 in 10.0 mi SW 21.9 mph 25.3 mph N/A   Clear
5:35 PM 84.2 °F - 50.0 °F 30% 29.97 in 10.0 mi SW 21.9 mph 25.3 mph N/A   Clear
5:55 PM 82.4 °F - 50.0 °F 32% 29.96 in 10.0 mi SW 16.1 mph 20.7 mph N/A   Clear
6:15 PM 82.4 °F - 50.0 °F 32% 29.96 in 10.0 mi SW 12.7 mph 23.0 mph N/A   Clear
6:35 PM 80.6 °F - 51.8 °F 37% 29.96 in 10.0 mi SSW 9.2 mph - N/A   Clear
6:55 PM 80.6 °F - 50.0 °F 34% 29.96 in 10.0 mi SSW 13.8 mph 17.3 mph N/A   Clear
7:15 PM 78.8 °F - 51.8 °F 39% 29.95 in 10.0 mi South 8.1 mph - N/A   Clear
7:35 PM 77.0 °F - 51.8 °F 41% 29.95 in 10.0 mi SSW 10.4 mph - N/A   Clear
7:55 PM 73.4 °F - 53.6 °F 50% 29.95 in 10.0 mi SSW 8.1 mph - N/A   Clear
8:15 PM 73.4 °F - 53.6 °F 50% 29.96 in 10.0 mi South 6.9 mph - N/A   Clear
8:35 PM 73.4 °F - 53.6 °F 50% 29.96 in 10.0 mi South 9.2 mph - N/A   Clear
8:55 PM 71.6 °F - 53.6 °F 53% 29.96 in 10.0 mi South 10.4 mph - N/A   Clear
9:15 PM 71.6 °F - 53.6 °F 53% 29.96 in 10.0 mi South 10.4 mph - N/A   Clear
9:35 PM 71.6 °F - 51.8 °F 50% 29.96 in 10.0 mi South 10.4 mph - N/A   Clear
9:55 PM 71.6 °F - 51.8 °F 50% 29.97 in 10.0 mi South 9.2 mph - N/A   Clear
10:15 PM 69.8 °F - 51.8 °F 53% 29.97 in 10.0 mi South 10.4 mph - N/A   Clear
10:35 PM 69.8 °F - 51.8 °F 53% 29.98 in 10.0 mi South 11.5 mph - N/A   Clear
10:55 PM 69.8 °F - 51.8 °F 53% 29.98 in 10.0 mi South 11.5 mph - N/A   Clear
11:15 PM 68.0 °F - 51.8 °F 56% 29.98 in 10.0 mi SSW 11.5 mph - N/A   Clear
11:35 PM 68.0 °F - 51.8 °F 56% 29.98 in 10.0 mi South 10.4 mph - N/A   Clear
11:55 PM 68.0 °F - 51.8 °F 56% 29.99 in 10.0 mi South 11.5 mph 16.1 mph N/A   Clear